timestamp,waterbody_station,lease,latitude,longitude,deployment_start_date,deployment_end_date,sensor,depth,mooring,Temperature_degrees Celsius,Dissolved Oxygen_percent saturation
2022-06-02T00:00:00,Little Harbour-Melmerby Beach,,45.650204,-62.525184,2021-06-03,2022-06-19,HOBO-20291467,1.0,fixed,12.171,
2022-06-02T00:15:00,Little Harbour-Melmerby Beach,,45.650204,-62.525184,2021-06-03,2022-06-19,HOBO-20291467,1.0,fixed,11.807,
2022-06-02T00:30:00,Little Harbour-Melmerby Beach,,45.650204,-62.525184,2021-06-03,2022-06-19,HOBO-20291467,1.0,fixed,11.686,
2022-06-02T00:45:00,Little Harbour-Melmerby Beach,,45.650204,-62.525184,2021-06-03,2022-06-19,HOBO-20291467,1.0,fixed,11.297,
2022-06-02T01:00:00,Little Harbour-Melmerby Beach,,45.650204,-62.525184,2021-06-03,2022-06-19,HOBO-20291467,1.0,fixed,11.127,
2022-06-02T01:15:00,Little Harbour-Melmerby Beach,,45.650204,-62.525184,2021-06-03,2022-06-19,HOBO-20291467,1.0,fixed,11.102,
2022-06-02T01:30:00,Little Harbour-Melmerby Beach,,45.650204,-62.525184,2021-06-03,2022-06-19,HOBO-20291467,1.0,fixed,11.053,
2022-06-02T01:45:00,Little Harbour-Melmerby Beach,,45.650204,-62.525184,2021-06-03,2022-06-19,HOBO-20291467,1.0,fixed,11.029,
2022-06-02T02:00:00,Little Harbour-Melmerby Beach,,45.650204,-62.525184,2021-06-03,2022-06-19,HOBO-20291467,1.0,fixed,11.029,
2022-06-02T02:15:00,Little Harbour-Melmerby Beach,,45.650204,-62.525184,2021-06-03,2022-06-19,HOBO-20291467,1.0,fixed,11.005,
2022-06-02T02:30:00,Little Harbour-Melmerby Beach,,45.650204,-62.525184,2021-06-03,2022-06-19,HOBO-20291467,1.0,fixed,10.98,
2022-06-02T02:45:00,Little Harbour-Melmerby Beach,,45.650204,-62.525184,2021-06-03,2022-06-19,HOBO-20291467,1.0,fixed,10.956,
2022-06-02T03:00:00,Little Harbour-Melmerby Beach,,45.650204,-62.525184,2021-06-03,2022-06-19,HOBO-20291467,1.0,fixed,10.932,
2022-06-02T03:15:00,Little Harbour-Melmerby Beach,,45.650204,-62.525184,2021-06-03,2022-06-19,HOBO-20291467,1.0,fixed,10.907,
2022-06-02T03:30:00,Little Harbour-Melmerby Beach,,45.650204,-62.525184,2021-06-03,2022-06-19,HOBO-20291467,1.0,fixed,10.883,
2022-06-02T03:45:00,Little Harbour-Melmerby Beach,,45.650204,-62.525184,2021-06-03,2022-06-19,HOBO-20291467,1.0,fixed,10.883,
2022-06-02T04:00:00,Little Harbour-Melmerby Beach,,45.650204,-62.525184,2021-06-03,2022-06-19,HOBO-20291467,1.0,fixed,10.858,
2022-06-02T04:15:00,Little Harbour-Melmerby Beach,,45.650204,-62.525184,2021-06-03,2022-06-19,HOBO-20291467,1.0,fixed,10.81,
2022-06-02T04:30:00,Little Harbour-Melmerby Beach,,45.650204,-62.525184,2021-06-03,2022-06-19,HOBO-20291467,1.0,fixed,10.81,
2022-06-02T04:45:00,Little Harbour-Melmerby Beach,,45.650204,-62.525184,2021-06-03,2022-06-19,HOBO-20291467,1.0,fixed,10.785,
2022-06-02T05:00:00,Little Harbour-Melmerby Beach,,45.650204,-62.525184,2021-06-03,2022-06-19,HOBO-20291467,1.0,fixed,10.761,
2022-06-02T05:15:00,Little Harbour-Melmerby Beach,,45.650204,-62.525184,2021-06-03,2022-06-19,HOBO-20291467,1.0,fixed,10.761,
2022-06-02T05:30:00,Little Harbour-Melmerby Beach,,45.650204,-62.525184,2021-06-03,2022-06-19,HOBO-20291467,1.0,fixed,10.736,
2022-06-02T05:45:00,Little Harbour-Melmerby Beach,,45.650204,-62.525184,2021-06-03,2022-06-19,HOBO-20291467,1.0,fixed,10.712,
2022-06-02T06:00:00,Little Harbour-Melmerby Beach,,45.650204,-62.525184,2021-06-03,2022-06-19,HOBO-20291467,1.0,fixed,10.736,
2022-06-02T06:15:00,Little Harbour-Melmerby Beach,,45.650204,-62.525184,2021-06-03,2022-06-19,HOBO-20291467,1.0,fixed,10.736,
2022-06-02T06:30:00,Little Harbour-Melmerby Beach,,45.650204,-62.525184,2021-06-03,2022-06-19,HOBO-20291467,1.0,fixed,10.712,
2022-06-02T06:45:00,Little Harbour-Melmerby Beach,,45.650204,-62.525184,2021-06-03,2022-06-19,HOBO-20291467,1.0,fixed,10.663,
2022-06-02T07:00:00,Little Harbour-Melmerby Beach,,45.650204,-62.525184,2021-06-03,2022-06-19,HOBO-20291467,1.0,fixed,10.614,
2022-06-02T07:15:00,Little Harbour-Melmerby Beach,,45.650204,-62.525184,2021-06-03,2022-06-19,HOBO-20291467,1.0,fixed,10.59,
2022-06-02T07:30:00,Little Harbour-Melmerby Beach,,45.650204,-62.525184,2021-06-03,2022-06-19,HOBO-20291467,1.0,fixed,10.614,
2022-06-02T07:45:00,Little Harbour-Melmerby Beach,,45.650204,-62.525184,2021-06-03,2022-06-19,HOBO-20291467,1.0,fixed,10.663,
2022-06-02T08:00:00,Little Harbour-Melmerby Beach,,45.650204,-62.525184,2021-06-03,2022-06-19,HOBO-20291467,1.0,fixed,10.687,
2022-06-02T08:15:00,Little Harbour-Melmerby Beach,,45.650204,-62.525184,2021-06-03,2022-06-19,HOBO-20291467,1.0,fixed,10.663,
2022-06-02T08:30:00,Little Harbour-Melmerby Beach,,45.650204,-62.525184,2021-06-03,2022-06-19,HOBO-20291467,1.0,fixed,10.638,
2022-06-02T08:45:00,Little Harbour-Melmerby Beach,,45.650204,-62.525184,2021-06-03,2022-06-19,HOBO-20291467,1.0,fixed,10.614,
2022-06-02T09:00:00,Little Harbour-Melmerby Beach,,45.650204,-62.525184,2021-06-03,2022-06-19,HOBO-20291467,1.0,fixed,10.614,
2022-06-02T09:15:00,Little Harbour-Melmerby Beach,,45.650204,-62.525184,2021-06-03,2022-06-19,HOBO-20291467,1.0,fixed,10.614,
2022-06-02T09:30:00,Little Harbour-Melmerby Beach,,45.650204,-62.525184,2021-06-03,2022-06-19,HOBO-20291467,1.0,fixed,10.565,
2022-06-02T09:45:00,Little Harbour-Melmerby Beach,,45.650204,-62.525184,2021-06-03,2022-06-19,HOBO-20291467,1.0,fixed,10.541,
2022-06-02T10:00:00,Little Harbour-Melmerby Beach,,45.650204,-62.525184,2021-06-03,2022-06-19,HOBO-20291467,1.0,fixed,10.541,
2022-06-02T10:15:00,Little Harbour-Melmerby Beach,,45.650204,-62.525184,2021-06-03,2022-06-19,HOBO-20291467,1.0,fixed,10.516,
2022-06-02T10:30:00,Little Harbour-Melmerby Beach,,45.650204,-62.525184,2021-06-03,2022-06-19,HOBO-20291467,1.0,fixed,10.516,
2022-06-02T10:45:00,Little Harbour-Melmerby Beach,,45.650204,-62.525184,2021-06-03,2022-06-19,HOBO-20291467,1.0,fixed,10.516,
2022-06-02T11:00:00,Little Harbour-Melmerby Beach,,45.650204,-62.525184,2021-06-03,2022-06-19,HOBO-20291467,1.0,fixed,10.516,
2022-06-02T11:15:00,Little Harbour-Melmerby Beach,,45.650204,-62.525184,2021-06-03,2022-06-19,HOBO-20291467,1.0,fixed,10.492,
2022-06-02T11:30:00,Little Harbour-Melmerby Beach,,45.650204,-62.525184,2021-06-03,2022-06-19,HOBO-20291467,1.0,fixed,10.492,
2022-06-02T11:45:00,Little Harbour-Melmerby Beach,,45.650204,-62.525184,2021-06-03,2022-06-19,HOBO-20291467,1.0,fixed,10.516,
2022-06-02T12:00:00,Little Harbour-Melmerby Beach,,45.650204,-62.525184,2021-06-03,2022-06-19,HOBO-20291467,1.0,fixed,10.541,
2022-06-02T12:15:00,Little Harbour-Melmerby Beach,,45.650204,-62.525184,2021-06-03,2022-06-19,HOBO-20291467,1.0,fixed,10.565,
2022-06-02T12:30:00,Little Harbour-Melmerby Beach,,45.650204,-62.525184,2021-06-03,2022-06-19,HOBO-20291467,1.0,fixed,10.614,
2022-06-02T12:45:00,Little Harbour-Melmerby Beach,,45.650204,-62.525184,2021-06-03,2022-06-19,HOBO-20291467,1.0,fixed,10.663,
2022-06-02T13:00:00,Little Harbour-Melmerby Beach,,45.650204,-62.525184,2021-06-03,2022-06-19,HOBO-20291467,1.0,fixed,10.712,
2022-06-02T13:15:00,Little Harbour-Melmerby Beach,,45.650204,-62.525184,2021-06-03,2022-06-19,HOBO-20291467,1.0,fixed,10.761,
2022-06-02T13:30:00,Little Harbour-Melmerby Beach,,45.650204,-62.525184,2021-06-03,2022-06-19,HOBO-20291467,1.0,fixed,10.81,
2022-06-02T13:45:00,Little Harbour-Melmerby Beach,,45.650204,-62.525184,2021-06-03,2022-06-19,HOBO-20291467,1.0,fixed,10.858,
2022-06-02T14:00:00,Little Harbour-Melmerby Beach,,45.650204,-62.525184,2021-06-03,2022-06-19,HOBO-20291467,1.0,fixed,10.907,
2022-06-02T14:15:00,Little Harbour-Melmerby Beach,,45.650204,-62.525184,2021-06-03,2022-06-19,HOBO-20291467,1.0,fixed,10.98,
2022-06-02T14:30:00,Little Harbour-Melmerby Beach,,45.650204,-62.525184,2021-06-03,2022-06-19,HOBO-20291467,1.0,fixed,11.029,
2022-06-02T14:45:00,Little Harbour-Melmerby Beach,,45.650204,-62.525184,2021-06-03,2022-06-19,HOBO-20291467,1.0,fixed,11.102,
2022-06-02T15:00:00,Little Harbour-Melmerby Beach,,45.650204,-62.525184,2021-06-03,2022-06-19,HOBO-20291467,1.0,fixed,11.175,
2022-06-02T15:15:00,Little Harbour-Melmerby Beach,,45.650204,-62.525184,2021-06-03,2022-06-19,HOBO-20291467,1.0,fixed,11.248,
2022-06-02T15:30:00,Little Harbour-Melmerby Beach,,45.650204,-62.525184,2021-06-03,2022-06-19,HOBO-20291467,1.0,fixed,11.346,
2022-06-02T15:45:00,Little Harbour-Melmerby Beach,,45.650204,-62.525184,2021-06-03,2022-06-19,HOBO-20291467,1.0,fixed,11.419,
2022-06-02T16:00:00,Little Harbour-Melmerby Beach,,45.650204,-62.525184,2021-06-03,2022-06-19,HOBO-20291467,1.0,fixed,11.492,
2022-06-02T16:15:00,Little Harbour-Melmerby Beach,,45.650204,-62.525184,2021-06-03,2022-06-19,HOBO-20291467,1.0,fixed,11.516,
2022-06-02T16:30:00,Little Harbour-Melmerby Beach,,45.650204,-62.525184,2021-06-03,2022-06-19,HOBO-20291467,1.0,fixed,11.565,
2022-06-02T16:45:00,Little Harbour-Melmerby Beach,,45.650204,-62.525184,2021-06-03,2022-06-19,HOBO-20291467,1.0,fixed,11.565,
2022-06-02T17:00:00,Little Harbour-Melmerby Beach,,45.650204,-62.525184,2021-06-03,2022-06-19,HOBO-20291467,1.0,fixed,11.565,
2022-06-02T17:15:00,Little Harbour-Melmerby Beach,,45.650204,-62.525184,2021-06-03,2022-06-19,HOBO-20291467,1.0,fixed,11.589,
2022-06-02T17:30:00,Little Harbour-Melmerby Beach,,45.650204,-62.525184,2021-06-03,2022-06-19,HOBO-20291467,1.0,fixed,11.637,
2022-06-02T17:45:00,Little Harbour-Melmerby Beach,,45.650204,-62.525184,2021-06-03,2022-06-19,HOBO-20291467,1.0,fixed,11.637,
2022-06-02T18:00:00,Little Harbour-Melmerby Beach,,45.650204,-62.525184,2021-06-03,2022-06-19,HOBO-20291467,1.0,fixed,11.637,
2022-06-02T18:15:00,Little Harbour-Melmerby Beach,,45.650204,-62.525184,2021-06-03,2022-06-19,HOBO-20291467,1.0,fixed,11.71,
2022-06-02T18:30:00,Little Harbour-Melmerby Beach,,45.650204,-62.525184,2021-06-03,2022-06-19,HOBO-20291467,1.0,fixed,11.832,
2022-06-02T18:45:00,Little Harbour-Melmerby Beach,,45.650204,-62.525184,2021-06-03,2022-06-19,HOBO-20291467,1.0,fixed,11.88,
2022-06-02T19:00:00,Little Harbour-Melmerby Beach,,45.650204,-62.525184,2021-06-03,2022-06-19,HOBO-20291467,1.0,fixed,12.05,
2022-06-02T19:15:00,Little Harbour-Melmerby Beach,,45.650204,-62.525184,2021-06-03,2022-06-19,HOBO-20291467,1.0,fixed,12.389,
2022-06-02T19:30:00,Little Harbour-Melmerby Beach,,45.650204,-62.525184,2021-06-03,2022-06-19,HOBO-20291467,1.0,fixed,12.582,
2022-06-02T19:45:00,Little Harbour-Melmerby Beach,,45.650204,-62.525184,2021-06-03,2022-06-19,HOBO-20291467,1.0,fixed,12.751,
2022-06-02T20:00:00,Little Harbour-Melmerby Beach,,45.650204,-62.525184,2021-06-03,2022-06-19,HOBO-20291467,1.0,fixed,12.896,
2022-06-02T20:15:00,Little Harbour-Melmerby Beach,,45.650204,-62.525184,2021-06-03,2022-06-19,HOBO-20291467,1.0,fixed,12.992,
2022-06-02T20:30:00,Little Harbour-Melmerby Beach,,45.650204,-62.525184,2021-06-03,2022-06-19,HOBO-20291467,1.0,fixed,13.064,
2022-06-02T20:45:00,Little Harbour-Melmerby Beach,,45.650204,-62.525184,2021-06-03,2022-06-19,HOBO-20291467,1.0,fixed,13.112,
2022-06-02T21:00:00,Little Harbour-Melmerby Beach,,45.650204,-62.525184,2021-06-03,2022-06-19,HOBO-20291467,1.0,fixed,13.161,
2022-06-02T21:15:00,Little Harbour-Melmerby Beach,,45.650204,-62.525184,2021-06-03,2022-06-19,HOBO-20291467,1.0,fixed,13.209,
2022-06-02T21:30:00,Little Harbour-Melmerby Beach,,45.650204,-62.525184,2021-06-03,2022-06-19,HOBO-20291467,1.0,fixed,13.209,
2022-06-02T21:45:00,Little Harbour-Melmerby Beach,,45.650204,-62.525184,2021-06-03,2022-06-19,HOBO-20291467,1.0,fixed,13.137,
2022-06-02T22:00:00,Little Harbour-Melmerby Beach,,45.650204,-62.525184,2021-06-03,2022-06-19,HOBO-20291467,1.0,fixed,13.161,
2022-06-02T22:15:00,Little Harbour-Melmerby Beach,,45.650204,-62.525184,2021-06-03,2022-06-19,HOBO-20291467,1.0,fixed,13.209,
2022-06-02T22:30:00,Little Harbour-Melmerby Beach,,45.650204,-62.525184,2021-06-03,2022-06-19,HOBO-20291467,1.0,fixed,13.185,
2022-06-02T22:45:00,Little Harbour-Melmerby Beach,,45.650204,-62.525184,2021-06-03,2022-06-19,HOBO-20291467,1.0,fixed,13.185,
2022-06-02T23:00:00,Little Harbour-Melmerby Beach,,45.650204,-62.525184,2021-06-03,2022-06-19,HOBO-20291467,1.0,fixed,13.161,
2022-06-02T23:15:00,Little Harbour-Melmerby Beach,,45.650204,-62.525184,2021-06-03,2022-06-19,HOBO-20291467,1.0,fixed,13.112,
2022-06-02T23:30:00,Little Harbour-Melmerby Beach,,45.650204,-62.525184,2021-06-03,2022-06-19,HOBO-20291467,1.0,fixed,13.04,
2022-06-02T23:45:00,Little Harbour-Melmerby Beach,,45.650204,-62.525184,2021-06-03,2022-06-19,HOBO-20291467,1.0,fixed,12.847,
